THOR ABLESTAR DEB, 48826

Orbit data source: Space-Track

THOR ABLESTAR DEB, 48826 is space debris in LEO originally from a launch on Thu, 29 Jun 1961 UTC launched from the Air Force Eastern Test Range (AFETR). Debris objects in space refer to the collection of defunct objects orbiting the Earth. Examples of debris include non-operational satellites, rocket bodies, and fragments generated from explosions, collisions, or faulty payload assembly.

Loading next visibility...
Identifier
48826, 1961-015NE
Orbit
LEO
Country
Flag of USUS
Related business
Manufacturer
Unknown
Mission
Spacecraft
Bus & Motor
Unknown
Mass
Unknown
Launch date (UTC)
1961-06-29 (65 years ago)
Launch vehicle
Unknown
Launch site
Air Force Eastern Test Range (AFETR)
Object type
Payload
Rocket body
Debris
Shape & HBR
Unknown shape, 0.1 m
Radar Cross Section
Small (<0.1 m²)

Expand to show TLE details & history
Last TLE update: 6 days ago

TLE from 6 days ago
0 THOR ABLESTAR DEB
1 48826U 61015NE  26160.89451733  .00000955  00000-0  37325-3 0  9998
2 48826  66.5989  21.3457 0049804 345.6453  27.6493 14.33216180653655
Epoch: 2026-06-09T21:28Z
TLE epoch observation values (Epoch: 2026-06-09T21:28:06.297Z)
Latitude
12.4019°
Longitude
166.49045°
Altitude
750.796 km
Speed
7.497 km/s
True Right ascension
01h 47m 06s
True Declination
12° 19' 48"
Sunlit
Object was in daylight at epoch
Visualization orbit readout
Latitude
Unknown
Longitude
Unknown
Altitude
Unknown
Speed
Unknown
Apparent Right ascension
Unknown
Apparent Declination
Unknown
Sunlit
N/A
Visualization observer readout
Local Sidereal Time
11:15:13
Azimuth
Unknown
Elevation
Unknown
Doppler factor
Unknown
Orbital elements
Apogee altitude
815.032 km
Perigee altitude
743.738 km
Semi-major axis
7,157.522 km
Eccentricity
0.00498
Inclination
66.5989°
RAAN
21.3457°
Arg. of periapsis
345.6453°
True anomaly
27.91561°
Mean anomaly
27.6493°
Eccentric anomaly
27.78231°
Mean motion
3.58426 °/min
Orbital period
100.44 mins
BSTAR
0.00037325
Loading maneuver chart data...
Computing Atmospheric mass density...

Documentation

Showing up to 5 results
|